FW6365 Weather Reports


Display with metric or nautical units.
time (UTC)temp
F
wind
direction
speed
MPH
gust
MPH
rain 1hr
in
rain 24hr
in
rain mn
in
humidity
%
barometer
mb
20260506212527 57 271 6.0 12.0 0.00 0.00 0.00 80 1021.9
20260506212026 56 254 4.0 18.0 0.00 0.00 0.00 81 1021.9
20260506211550 56 194 5.0 18.0 0.00 0.00 0.00 82 1022.0
20260506211026 56 190 7.0 12.0 0.00 0.00 0.00 82 1021.9
20260506210525 56 127 6.0 13.0 0.00 0.00 0.00 81 1022.0
20260506210042 56 254 6.0 13.0 0.00 0.00 0.00 80 1022.0
20260506205525 57 232 4.0 11.0 0.00 0.00 0.00 81 1021.9
20260506205025 56 246 6.0 11.0 0.00 0.00 0.00 80 1021.9
20260506204540 57 209 6.0 11.0 0.00 0.00 0.00 81 1022.0
20260506204026 57 197 5.0 9.0 0.00 0.00 0.00 80 1022.0
20260506203525 57 227 3.0 9.0 0.00 0.00 0.00 81 1021.8
20260506203040 57 267 4.0 14.0 0.00 0.00 0.00 81 1021.7
20260506202525 57 219 6.0 14.0 0.00 0.00 0.00 80 1021.7
20260506202025 56 222 5.0 13.0 0.00 0.00 0.00 80 1021.8
20260506201540 57 283 6.0 11.0 0.00 0.00 0.00 79 1021.8
20260506201028 57 255 5.0 10.0 0.00 0.00 0.00 80 1021.7
20260506200528 57 189 6.0 10.0 0.00 0.00 0.00 79 1021.6
20260506200038 57 267 5.0 9.0 0.00 0.00 0.00 80 1021.7
20260506195530 57 228 3.0 11.0 0.00 0.00 0.00 81 1021.6
20260506195025 56 249 4.0 11.0 0.00 0.00 0.00 81 1021.5
20260506194546 56 193 3.0 15.0 0.00 0.00 0.00 81 1021.5
20260506194028 56 247 7.0 15.0 0.00 0.00 0.00 80 1021.5
20260506193525 56 216 5.0 12.0 0.00 0.00 0.00 81 1021.5
20260506193048 56 201 6.0 12.0 0.00 0.00 0.00 81 1021.5
20260506192526 56 211 6.0 14.0 0.00 0.00 0.00 80 1021.5
20260506192026 55 220 6.0 14.0 0.00 0.00 0.00 81 1021.5
20260506191542 55 241 6.0 14.0 0.00 0.00 0.00 81 1021.4
20260506191026 55 246 6.0 14.0 0.00 0.00 0.00 81 1021.4
20260506190526 55 222 6.0 14.0 0.00 0.00 0.00 81 1021.4
20260506190041 55 225 6.0 12.0 0.00 0.00 0.00 82 1021.5
20260506185525 55 233 6.0 12.0 0.00 0.00 0.00 82 1021.6
20260506185030 55 183 4.0 8.0 0.00 0.00 0.00 83 1021.5
20260506184546 55 254 3.0 10.0 0.00 0.00 0.00 83 1021.5
20260506184033 55 247 5.0 11.0 0.00 0.00 0.00 83 1021.4
20260506183529 55 225 5.0 11.0 0.00 0.00 0.00 82 1021.4
20260506183043 55 238 5.0 12.0 0.00 0.00 0.00 82 1021.4
20260506182526 55 190 5.0 12.0 0.00 0.00 0.00 81 1021.5
20260506182026 55 238 6.0 13.0 0.00 0.00 0.00 82 1021.4
20260506181557 55 232 5.0 13.0 0.00 0.00 0.00 81 1021.3
20260506181026 56 225 6.0 10.0 0.00 0.00 0.00 81 1021.3
20260506180526 56 199 5.0 14.0 0.00 0.00 0.00 81 1021.1
20260506180043 56 222 7.0 14.0 0.00 0.00 0.00 80 1021.1
20260506175527 56 216 5.0 11.0 0.00 0.00 0.00 81 1021.0
20260506175025 56 246 5.0 12.0 0.00 0.00 0.00 81 1021.4
20260506174538 56 257 3.0 13.0 0.00 0.00 0.00 81 1021.2
20260506174025 56 254 6.0 13.0 0.00 0.00 0.00 81 1021.1
20260506173525 56 228 6.0 13.0 0.00 0.00 0.00 79 1021.0
20260506173054 56 198 7.0 14.0 0.00 0.00 0.00 79 1020.9
20260506172526 56 229 6.0 14.0 0.00 0.00 0.00 81 1021.0
20260506172025 56 254 5.0 13.0 0.00 0.00 0.00 80 1021.0
20260506171546 56 252 7.0 13.0 0.00 0.00 0.00 80 1021.0
20260506171025 56 238 4.0 12.0 0.00 0.00 0.00 81 1021.0
20260506170525 55 249 5.0 12.0 0.00 0.00 0.00 81 1021.1
20260506170050 55 224 3.0 7.0 0.00 0.00 0.00 81 1021.1
20260506165525 55 273 3.0 9.0 0.00 0.00 0.00 82 1021.0
20260506165025 55 257 5.0 9.0 0.00 0.00 0.00 81 1021.0
20260506164542 55 260 4.0 10.0 0.00 0.00 0.00 82 1021.0
20260506164028 55 215 3.0 10.0 0.00 0.00 0.00 81 1020.9
20260506163526 55 235 3.0 8.0 0.00 0.00 0.00 82 1021.0
20260506163043 55 237 3.0 8.0 0.00 0.00 0.00 83 1021.0
20260506162525 55 242 3.0 8.0 0.00 0.00 0.00 83 1020.8
20260506162025 55 202 5.0 8.0 0.00 0.00 0.00 83 1020.8
20260506161542 55 209 2.0 8.0 0.00 0.00 0.00 84 1020.7
20260506161025 55 217 3.0 8.0 0.00 0.00 0.00 85 1020.6
20260506160527 55 223 3.0 6.0 0.00 0.00 0.00 85 1020.6
20260506160052 55 248 2.0 6.0 0.00 0.00 0.00 85 1020.5
20260506155525 54 208 3.0 6.0 0.00 0.00 0.00 84 1020.5
20260506155025 54 277 2.0 8.0 0.00 0.00 0.00 86 1020.7
20260506154548 54 279 3.0 8.0 0.00 0.00 0.00 85 1020.4
20260506154025 54 196 3.0 8.0 0.00 0.00 0.00 86 1020.5
20260506153525 54 249 3.0 8.0 0.00 0.00 0.00 86 1020.4
20260506153042 54 210 2.0 7.0 0.00 0.00 0.00 86 1020.4
20260506152525 54 253 3.0 5.0 0.00 0.00 0.00 87 1020.5
20260506152028 53 257 1.0 4.0 0.00 0.00 0.00 88 1020.5
20260506151545 53 265 2.0 5.0 0.00 0.00 0.00 88 1020.5
20260506151026 53 232 2.0 5.0 0.00 0.00 0.00 88 1020.6
20260506150527 53 207 3.0 6.0 0.00 0.00 0.00 89 1020.7
20260506150040 53 172 3.0 6.0 0.00 0.00 0.00 89 1020.6
20260506145526 53 162 2.0 5.0 0.00 0.00 0.00 90 1020.7
20260506145025 53 170 2.0 6.0 0.00 0.00 0.00 90 1020.5
20260506144544 52 209 4.0 6.0 0.00 0.00 0.00 90 1020.4
20260506144025 52 165 3.0 6.0 0.00 0.00 0.00 90 1020.5
20260506143525 52 190 4.0 6.0 0.00 0.00 0.00 90 1020.4
20260506143039 52 197 2.0 5.0 0.00 0.00 0.00 90 1020.4
20260506142526 52 209 3.0 5.0 0.00 0.00 0.00 90 1020.5
20260506142025 52 220 1.0 6.0 0.00 0.00 0.00 90 1020.3
20260506141541 52 161 4.0 6.0 0.00 0.00 0.00 90 1020.0
20260506141027 52 198 3.0 5.0 0.00 0.00 0.00 90 1020.2
20260506140525 52 202 1.0 5.0 0.00 0.00 0.00 90 1020.2
20260506140042 52 193 2.0 8.0 0.00 0.00 0.00 90 1020.2
20260506135524 52 194 2.0 8.0 0.00 0.00 0.00 90 1020.3
20260506135024 52 219 1.0 4.0 0.00 0.00 0.00 90 1020.1
20260506134541 52 269 1.0 6.0 0.00 0.00 0.00 90 1020.1
20260506134025 52 229 3.0 6.0 0.00 0.00 0.00 90 1020.3
20260506133529 52 211 0.0 7.0 0.00 0.00 0.00 90 1020.2
20260506133039 52 224 3.0 7.0 0.00 0.00 0.00 90 1020.2
20260506132525 52 165 3.0 6.0 0.00 0.00 0.00 90 1020.3
20260506132027 52 229 2.0 6.0 0.00 0.00 0.00 90 1020.2
20260506131555 52 249 3.0 7.0 0.00 0.00 0.00 90 1020.2
20260506131025 52 244 2.0 7.0 0.00 0.00 0.00 90 1020.1
20260506130527 52 274 2.0 5.0 0.00 0.00 0.00 90 1020.1
20260506130046 52 237 2.0 4.0 0.00 0.00 0.00 90 1020.1
20260506125525 52 285 1.0 5.0 0.00 0.00 0.00 90 1019.7
20260506125025 52 219 2.0 5.0 0.00 0.00 0.00 90 1019.8
20260506124544 52 243 3.0 7.0 0.00 0.00 0.00 90 1019.7
20260506124025 52 236 2.0 7.0 0.00 0.00 0.00 90 1019.7
20260506123529 52 208 3.0 8.0 0.00 0.00 0.00 90 1019.7
20260506123043 52 244 2.0 8.0 0.00 0.00 0.00 90 1019.7
20260506122525 52 287 3.0 7.0 0.00 0.00 0.00 90 1019.7
20260506122025 52 230 2.0 8.0 0.00 0.00 0.00 90 1019.6
20260506121542 52 296 3.0 9.0 0.00 0.00 0.00 90 1019.7
20260506121025 52 233 3.0 13.0 0.00 0.00 0.00 90 1019.5
20260506120527 52 257 6.0 13.0 0.00 0.00 0.00 90 1019.5
20260506120041 52 248 3.0 10.0 0.00 0.00 0.00 90 1019.5
20260506115525 52 275 4.0 9.0 0.00 0.00 0.00 90 1019.6
20260506115025 52 263 4.0 9.0 0.00 0.00 0.00 90 1019.5
20260506114542 52 246 5.0 10.0 0.00 0.00 0.00 89 1019.5
20260506114029 52 310 4.0 10.0 0.00 0.00 0.00 89 1019.4
20260506113525 52 254 3.0 11.0 0.00 0.00 0.00 89 1019.3
20260506113042 52 257 5.0 11.0 0.00 0.00 0.00 89 1019.3
20260506112524 52 241 4.0 11.0 0.00 0.00 0.00 89 1019.3
20260506112024 52 202 3.0 7.0 0.00 0.00 0.00 90 1019.3
20260506111540 52 274 3.0 8.0 0.00 0.00 0.00 90 1019.2
20260506111028 52 259 2.0 8.0 0.00 0.00 0.00 90 1019.2
20260506110530 52 277 3.0 7.0 0.00 0.00 0.00 90 1019.3
20260506110040 53 246 3.0 8.0 0.00 0.00 0.00 90 1019.3
20260506105526 53 240 3.0 8.0 0.00 0.00 0.00 90 1019.2
20260506105030 53 271 1.0 8.0 0.00 0.00 0.00 90 1019.2
20260506104547 53 253 5.0 8.0 0.00 0.00 0.00 89 1019.2
20260506104025 53 232 3.0 9.0 0.00 0.00 0.00 89 1019.1
20260506103525 53 284 4.0 11.0 0.00 0.00 0.00 89 1019.1
20260506103042 53 244 4.0 11.0 0.00 0.00 0.00 89 1019.1
20260506102525 53 257 4.0 11.0 0.00 0.00 0.00 89 1019.1
20260506102025 53 221 4.0 8.0 0.00 0.00 0.00 89 1019.0
20260506101536 53 269 4.0 8.0 0.00 0.00 0.00 89 1018.9
20260506101025 53 293 3.0 10.0 0.00 0.00 0.00 89 1018.9
20260506100529 53 269 5.0 10.0 0.00 0.00 0.00 89 1018.9
20260506100042 53 274 6.0 11.0 0.00 0.00 0.00 89 1018.8
20260506095527 53 161 3.0 11.0 0.00 0.00 0.00 89 1018.9
20260506095025 53 223 2.0 10.0 0.00 0.00 0.00 89 1018.9
20260506094551 53 255 3.0 10.0 0.00 0.00 0.00 89 1018.7
20260506094028 53 218 4.0 9.0 0.00 0.00 0.00 89 1018.8
20260506093524 53 234 5.0 9.0 0.00 0.00 0.00 89 1018.7
20260506093041 53 224 2.0 6.0 0.00 0.00 0.00 89 1018.6
20260506092525 53 163 2.0 7.0 0.00 0.00 0.00 89 1018.6
20260506092028 53 248 3.0 7.0 0.00 0.00 0.00 89 1018.6
20260506091541 53 227 3.0 13.0 0.00 0.00 0.00 89 1018.5
20260506091026 53 230 3.0 13.0 0.00 0.00 0.00 89 1018.5
20260506090525 53 259 2.0 7.0 0.00 0.00 0.00 89 1018.6
20260506090039 53 252 3.0 7.0 0.00 0.00 0.00 89 1018.6
20260506085527 53 230 4.0 11.0 0.00 0.00 0.00 88 1018.6
20260506085027 53 225 4.0 11.0 0.00 0.00 0.00 88 1018.6
20260506084545 53 242 2.0 8.0 0.00 0.00 0.00 88 1018.5
20260506084028 53 221 3.0 8.0 0.00 0.00 0.00 88 1018.4
20260506083527 53 220 3.0 7.0 0.00 0.00 0.00 88 1018.3
20260506083044 53 184 2.0 6.0 0.00 0.00 0.00 88 1018.2
20260506082530 53 157 2.0 7.0 0.00 0.00 0.00 88 1018.2
20260506082030 53 186 3.0 7.0 0.00 0.00 0.00 88 1018.2
20260506081543 53 198 3.0 7.0 0.00 0.00 0.00 88 1018.2
20260506081027 53 163 2.0 7.0 0.00 0.00 0.00 88 1018.1
20260506080527 53 251 0.0 7.0 0.00 0.00 0.00 88 1018.0
20260506073527 53 218 1.0 5.0 0.00 0.00 0.00 88 1017.7
20260506073041 53 219 1.0 3.0 0.00 0.00 0.00 88 1017.6
20260506072531 53 234 1.0 5.0 0.00 0.00 0.00 88 1017.6
20260506072028 54 206 2.0 5.0 0.00 0.00 0.00 88 1017.6
20260506071547 54 243 2.0 5.0 0.00 0.00 0.00 88 1017.6
20260506071027 53 232 2.0 9.0 0.00 0.00 0.00 88 1017.6
20260506070527 54 209 3.0 9.0 0.00 0.00 0.00 88 1017.5
20260506062027 53 240 2.0 8.0 0.00 0.00 0.00 89 1017.4
20260506061541 53 201 4.0 8.0 0.00 0.00 0.00 89 1017.3
20260506061031 53 242 4.0 8.0 0.00 0.00 0.00 89 1017.4
20260506060529 53 210 3.0 7.0 0.00 0.00 0.00 89 1017.3
20260506051027 52 165 4.0 5.0 0.00 0.00 0.00 91 1017.0
20260506050526 52 161 3.0 5.0 0.00 0.00 0.00 90 1016.8
20260506045026 53 174 2.0 5.0 0.00 0.00 0.00 89 1016.8
20260506044544 53 153 2.0 5.0 0.00 0.00 0.00 89 1016.8
20260506044026 53 149 3.0 4.0 0.00 0.00 0.00 89 1016.8
20260506043526 54 163 2.0 4.0 0.00 0.00 0.00 89 1016.7
20260506043040 54 165 3.0 5.0 0.00 0.00 0.00 88 1016.6
20260506042526 54 160 2.0 5.0 0.00 0.00 0.00 89 1016.6
20260506042026 54 170 2.0 4.0 0.00 0.00 0.00 89 1016.5
20260506041547 54 176 2.0 4.0 0.00 0.00 0.00 88 1016.5
20260506041026 54 166 2.0 4.0 0.00 0.00 0.00 88 1016.5
20260506040529 54 212 2.0 4.0 0.00 0.00 0.00 87 1016.4
20260506040044 55 198 1.0 4.0 0.00 0.00 0.00 87 1016.4
20260506035527 55 209 1.0 5.0 0.00 0.00 0.00 86 1016.3
20260506035027 55 189 2.0 5.0 0.00 0.00 0.00 86 1016.2
20260506034543 56 190 2.0 5.0 0.00 0.00 0.00 85 1016.2
20260506034026 56 214 2.0 5.0 0.00 0.00 0.00 86 1016.1
20260506033526 56 172 2.0 6.0 0.00 0.00 0.00 86 1016.0
20260506033041 56 200 2.0 6.0 0.00 0.00 0.00 84 1016.0
20260506032527 57 222 2.0 6.0 0.00 0.00 0.00 83 1016.0
20260506032026 58 200 1.0 4.0 0.00 0.00 0.00 83 1016.0
20260506031541 58 206 2.0 5.0 0.00 0.00 0.00 82 1015.9
20260506031026 59 230 2.0 5.0 0.00 0.00 0.00 81 1015.9
20260506030527 59 206 3.0 4.0 0.00 0.00 0.00 80 1015.9
20260506030040 60 211 1.0 4.0 0.00 0.00 0.00 80 1015.8
20260506025526 60 213 2.0 5.0 0.00 0.00 0.00 79 1015.8
20260506025028 60 223 2.0 6.0 0.00 0.00 0.00 79 1015.8
20260506024550 60 273 3.0 7.0 0.00 0.00 0.00 78 1015.8
20260506024027 61 267 3.0 8.0 0.00 0.00 0.00 78 1015.8
20260506023527 61 246 4.0 8.0 0.00 0.00 0.00 78 1015.8
20260506023043 61 234 4.0 7.0 0.00 0.00 0.00 78 1015.8
20260506022530 61 277 3.0 7.0 0.00 0.00 0.00 77 1015.9
20260506022026 62 269 2.0 7.0 0.00 0.00 0.00 77 1015.8
20260506021540 62 213 2.0 9.0 0.00 0.00 0.00 77 1015.9
20260506021028 62 268 4.0 9.0 0.00 0.00 0.00 76 1015.8
20260506020526 62 208 3.0 8.0 0.00 0.00 0.00 76 1015.8
20260506020041 62 286 3.0 8.0 0.00 0.00 0.00 77 1015.7
20260506015530 62 227 3.0 9.0 0.00 0.00 0.00 77 1015.7
20260506015027 62 240 4.0 12.0 0.00 0.00 0.00 76 1015.7
20260506014543 62 230 6.0 12.0 0.00 0.00 0.00 76 1015.7
20260506014026 62 263 8.0 12.0 0.00 0.00 0.00 76 1015.7
20260506013529 63 242 5.0 11.0 0.00 0.00 0.00 75 1015.7
20260506013038 63 269 7.0 11.0 0.00 0.00 0.00 75 1015.8
20260506012527 63 219 5.0 10.0 0.00 0.00 0.00 74 1015.7
20260506012028 63 225 4.0 9.0 0.00 0.00 0.00 74 1015.7
20260506011544 63 240 4.0 9.0 0.00 0.00 0.00 74 1015.7
20260506011029 63 206 4.0 9.0 0.00 0.00 0.00 74 1015.7
20260506010527 63 225 5.0 9.0 0.00 0.00 0.00 74 1015.7
20260506010043 63 223 3.0 9.0 0.00 0.00 0.00 75 1015.7
20260506005527 63 240 5.0 9.0 0.00 0.00 0.00 74 1015.8
20260506005026 63 257 5.0 10.0 0.00 0.00 0.00 74 1015.8
20260506004541 63 197 5.0 10.0 0.00 0.00 0.00 75 1016.0
20260506004028 63 245 3.0 11.0 0.00 0.00 0.00 74 1016.0
20260506003526 63 225 5.0 11.0 0.00 0.00 0.00 75 1016.0
20260506003040 63 219 4.0 9.0 0.00 0.00 0.00 74 1015.9
20260506002526 63 227 3.0 9.0 0.00 0.00 0.00 76 1015.9
20260506002026 62 246 4.0 10.0 0.00 0.00 0.00 76 1015.9
20260506001542 62 226 5.0 10.0 0.00 0.00 0.00 77 1015.9
20260506001026 62 234 3.0 9.0 0.00 0.00 0.00 77 1016.0
20260506000527 62 259 3.0 10.0 0.00 0.00 0.00 78 1016.0
20260506000040 62 284 6.0 10.0 0.00 0.00 0.00 77 1015.9
20260505235530 62 261 3.0 10.0 0.00 0.00 0.00 77 1016.0
20260505235027 62 224 4.0 10.0 0.00 0.00 0.00 77 1016.0
20260505234548 62 232 5.0 10.0 0.00 0.00 0.00 76 1016.1
20260505234026 62 246 2.0 7.0 0.00 0.00 0.00 76 1016.1
20260505233526 62 273 3.0 7.0 0.00 0.00 0.00 76 1016.2
20260505233042 62 200 3.0 8.0 0.00 0.00 0.00 77 1016.3
20260505232527 62 244 4.0 8.0 0.00 0.00 0.00 76 1016.2
20260505232027 63 306 3.0 7.0 0.00 0.00 0.00 76 1016.3
20260505231552 63 292 3.0 7.0 0.00 0.00 0.00 76 1016.4
20260505231027 63 311 3.0 9.0 0.00 0.00 0.00 79 1016.4
20260505230526 62 244 4.0 9.0 0.00 0.00 0.00 78 1016.5
20260505230053 62 259 4.0 9.0 0.00 0.00 0.00 78 1016.6
20260505225528 62 244 2.0 10.0 0.00 0.00 0.00 78 1016.5
20260505225030 62 0 5.0 10.0 0.00 0.00 0.00 77 1016.6
20260505224541 62 207 3.0 7.0 0.00 0.00 0.00 78 1016.6
20260505224026 62 271 2.0 6.0 0.00 0.00 0.00 78 1016.7
20260505223529 61 342 3.0 6.0 0.00 0.00 0.00 77 1016.6
20260505223044 62 296 2.0 6.0 0.00 0.00 0.00 79 1016.6
20260505222527 62 265 1.0 11.0 0.00 0.00 0.00 79 1016.7
20260505222027 61 235 4.0 11.0 0.00 0.00 0.00 78 1016.7
20260505221543 61 168 4.0 9.0 0.00 0.00 0.00 78 1016.8
20260505221034 61 241 3.0 9.0 0.00 0.00 0.00 78 1016.9
20260505220525 61 207 2.0 6.0 0.00 0.00 0.00 78 1016.8
20260505220043 61 0 0.0 6.0 0.00 0.00 0.00 79 1016.9
20260505215529 61 223 1.0 8.0 0.00 0.00 0.00 80 1016.9
20260505215028 61 281 3.0 8.0 0.00 0.00 0.00 79 1016.8
20260505214540 61 275 2.0 10.0 0.00 0.00 0.00 79 1016.9
20260505214026 61 235 4.0 10.0 0.00 0.00 0.00 78 1017.0
20260505213526 61 296 2.0 10.0 0.00 0.00 0.00 78 1017.0
20260505213048 61 220 2.0 10.0 0.00 0.00 0.00 79 1016.9